Home > Weather > Prince Rupert > Past weeks

Flag for Canada Past Weather in Prince Rupert, British Columbia, Canada — Yesterday and Last 2 Weeks

Now
54 °F

Light rain. Overcast.


Feels Like: 51 °F
Forecast: 54 / 58 °F
Wind: 9 mph from Southeast

Location: Prince Rupert

Current Time: Jun 25, 2016 at 9:00:38 AM

Latest Report: Jun 25, 2016 at 8:00 AM


Visibility: 9 mi

Pressure: 30.17 "Hg

Humidity: 88%

Dew Point: 50 °F

Location of Prince RupertLocation

Past Weather in Prince Rupert — Graph

°F

Prince Rupert Temperature Yesterday

Maximum temperature yesterday: 59 °F (at 3:00 PM)
Minimum temperature yesterday: 52 °F (at 5:00 AM)
Average temperature yesterday: 55 °F

High & Low Weather Summary for the Past Weeks

 TemperatureHumidityPressure
High61 °F (Jun 18, 12:00 PM)100% (Jun 12, 12:00 PM)30.44 "Hg (Jun 12, 12:00 PM)
Low46 °F (Jun 13, 2:53 AM)67% (Jun 11, 5:00 PM)29.75 "Hg (Jun 14, 3:00 PM)
Average53 °F87%30.05 "Hg
* Reported Jun 10 7:00 AM — Jun 25 7:00 AM, Prince Rupert, Weather by CustomWeather, © 2016

Note: Actual official high and low records may vary slightly from our data, if they occured in-between our weather recording intervals... More about our weather records

Advertising

Prince Rupert Weather History for the Previous 24 Hours

Scroll right to see more
 ConditionsComfort  
Time TempWeatherWind HumidityBarometerVisibility
7:00 AM
Sat, Jun 25
55 °FOvercast.8 mph82%30.16 "Hg9 mi
6:00 AM55 °FOvercast.10 mph82%30.16 "Hg9 mi
5:00 AM55 °FOvercast.13 mph77%30.16 "Hg9 mi
4:00 AM55 °FOvercast.12 mph77%30.16 "Hg9 mi
3:00 AM54 °FOvercast.5 mph88%30.16 "Hg9 mi
2:00 AM54 °FOvercast.5 mph88%30.16 "Hg9 mi
1:00 AM52 °FPassing clouds.5 mph94%30.16 "Hg9 mi
12:00 AM54 °FPartly cloudy.No wind88%30.16 "Hg9 mi
11:00 PM
Fri, Jun 24
55 °FOvercast.3 mph82%30.16 "Hg9 mi
10:00 PM55 °FMore clouds than sun.2 mph82%30.15 "Hg9 mi
9:00 PM55 °FMostly cloudy.2 mph77%30.15 "Hg9 mi
8:00 PM57 °FPartly sunny.2 mph77%30.15 "Hg9 mi
7:00 PM59 °FOvercast.3 mph72%30.14 "Hg9 mi
6:00 PM59 °FOvercast.No wind72%30.14 "Hg9 mi
5:00 PM57 °FOvercast.2 mph72%30.14 "Hg9 mi
4:00 PM57 °FOvercast.5 mph72%30.15 "Hg9 mi
3:00 PM59 °FOvercast.3 mph68%30.14 "Hg9 mi
2:00 PM57 °FOvercast.3 mph72%30.14 "Hg9 mi
1:00 PM54 °FMore clouds than sun.2 mph82%30.14 "Hg9 mi
12:45 PM55 °FMore clouds than sun.5 mph82%30.14 "Hg9 mi
12:00 PM55 °FOvercast.7 mph82%30.12 "Hg9 mi
11:00 AM54 °FMostly cloudy.3 mph82%30.11 "Hg9 mi
10:00 AM54 °FMore clouds than sun.6 mph88%30.10 "Hg9 mi
9:00 AM52 °FOvercast.6 mph88%30.09 "Hg9 mi
Weather by CustomWeather, © 2016

See weather overviewHow to use our weather pages